Flag for U.S.A. Weather past 2 weeks in Osage City, Kansas, U.S.A.

Now
61 °F

Sunny.


Feels Like: 61 °F
Forecast: 49 / 67 °F
Wind: 13 mph from Northwest

Location: Forbes Field

Current Time: Apr 19, 2015 at 11:06:01 AM

Latest Report: Apr 19, 2015 at 9:53 AM


Visibility: 10 mi

Pressure: 29.70 "Hg

Humidity: 72%

Dew point: 52 °F

Location of Osage CityLocation

Historic Weather in Osage City — Graph

°F

Osage City temperature yesterday

Maximum temperature yesterday: 68 °F (at 5:53 PM)
Minimum temperature yesterday: 58 °F (at 10:53 PM)
Average temperature yesterday: 62 °F

Past Weeks' High & Low Weather Summary

 TemperatureHumidityPressure
High88 °F (Apr 7, 2:53 PM)96% (Apr 8, 4:53 AM)30.40 "Hg (Apr 8, 4:53 AM)
Low37 °F (Apr 10, 6:53 AM)18% (Apr 4, 5:53 PM)29.50 "Hg (Apr 9, 4:53 AM)
Average60 °F66%29.95 "Hg
* Reported Apr 4 9:53 AM — Apr 19 9:53 AM, Osage City, Weather by CustomWeather, © 2015

Note: Actual official high and low records may vary slightly from our data, if they occured in-between our weather recording intervals... More about our weather records

Advertising

Osage City weather history for previous 24 hours

 ConditionsComfort  
Time TempWeatherWind HumidityBarometerVisibility
9:53 AM
Sun, Apr 19
61 °FSunny.13 mph72%29.70 "Hg10 mi
8:53 AM57 °FSunny.16 mph83%29.71 "Hg10 mi
7:53 AM55 °FSunny.15 mph87%29.71 "Hg10 mi
6:53 AM53 °FClear.7 mph93%29.70 "Hg10 mi
5:53 AM53 °FClear.6 mph93%29.69 "Hg10 mi
4:53 AM54 °FPassing clouds.No wind93%29.69 "Hg10 mi
3:53 AM55 °FLight rain. Overcast.5 mph90%29.76 "Hg10 mi
2:53 AM56 °FRain. Fog.9 mph90%29.80 "Hg4 mi
1:53 AM57 °FOvercast.5 mph83%29.78 "Hg10 mi
12:53 AM58 °FOvercast.6 mph81%29.78 "Hg10 mi
11:53 PM
Sat, Apr 18
58 °FOvercast.7 mph81%29.80 "Hg10 mi
10:53 PM58 °FOvercast.9 mph81%29.81 "Hg10 mi
9:53 PM60 °FClear.5 mph90%29.81 "Hg10 mi
8:53 PM62 °FPassing clouds.8 mph86%29.80 "Hg10 mi
7:53 PM65 °FPassing clouds.7 mph78%29.80 "Hg10 mi
6:53 PM66 °FMostly cloudy.8 mph75%29.80 "Hg10 mi
5:53 PM68 °FSunny.10 mph70%29.80 "Hg10 mi
4:53 PM66 °FPassing clouds.7 mph75%29.81 "Hg10 mi
3:53 PM65 °FPassing clouds.12 mph85%29.83 "Hg10 mi
2:53 PM63 °FPartly sunny.10 mph84%29.88 "Hg10 mi
1:53 PM64 °FLight rain. Overcast.10 mph84%29.88 "Hg10 mi
12:53 PM64 °FLight rain. Overcast.7 mph87%29.89 "Hg10 mi
11:53 AM63 °FLight rain. Overcast.No wind84%29.90 "Hg10 mi
Weather by CustomWeather, © 2015

See weather overviewHow to use our weather pages